Location: Waldport
(44.4270°N, 124.0680°W)
Time: 06:37:05
(UTC-08:00)

Amateur Radio Satellites - All Passes

Search period start: 31 January 2015 06:07
Search period end: 01 February 2015 06:07
Location: Waldport, 44.4270°N, 124.0680°W

Satellite Date Start Highest point End Downlink Frequencies (MHz)
Time Altitude Azimuth
PCSat 31 Jan 06:15:05 06:18:52 18° 323° (NW) 06:22:33 145.827
Cubesat XI-IV 31 Jan 06:15:37 06:20:46 45° 98° (E) 06:25:55 437.490
YUBILEINY 31 Jan 06:16:01 06:24:40 59° 75° (ENE) 06:33:21 435.215
CUTE-I 31 Jan 06:34:51 06:40:13 66° 102° (ESE) 06:45:34 437.470
RS-15 31 Jan 06:36:21 06:46:57 52° 319° (NW) 06:57:44 29.354- 29.394
PRISM 31 Jan 06:44:47 06:48:01 22° 267° (W) 06:51:12 437.425
STRAND 1 31 Jan 06:57:28 07:02:16 41° 262° (W) 07:07:06 437.568
AO-7 31 Jan 06:59:37 07:05:37 22° 311° (NW) 07:11:20 29.400- 29.500
DANDE 31 Jan 07:17:27 07:20:01 11° 313° (NW) 07:21:59 436.750
CUBESAT XI-V 31 Jan 07:39:34 07:41:11 11° 274° (W) 07:42:32 437.345
BRITE-PL 31 Jan 07:52:44 07:56:52 21° 88° (E) 08:01:02 437.365/2234.400
PHONESAT 2.4 31 Jan 07:54:38 07:56:30 14° 152° (SSE) 07:58:25 2401.200-2431.200
Cubesat XI-IV 31 Jan 07:56:10 08:00:41 27° 296° (WNW) 08:05:05 437.490
CANX-2 31 Jan 08:11:14 08:14:01 17° 90° (E) 08:16:56 2200.000
YUBILEINY 31 Jan 08:13:31 08:21:07 33° 276° (W) 08:28:31 435.215
CUTE-I 31 Jan 08:16:00 08:19:51 20° 299° (WNW) 08:23:32 437.470
AAUSAT CUBESAT 2 31 Jan 08:16:23 08:17:11 11° 87° (E) 08:18:15 437.432
VERMONT LUNAR 31 Jan 08:19:05 08:21:59 25° 161° (SSE) 08:24:55 437.305
HO-68 31 Jan 08:26:46 08:33:07 34° 95° (E) 08:39:34 435.675
CUTE 1.7 + AOD 2 31 Jan 08:34:26 08:38:04 28° 94° (E) 08:41:44 437.475
BEESAT 3 31 Jan 08:37:35 08:39:00 12° 31° (NNE) 08:40:33 437.485
Oscar 11 31 Jan 08:45:39 08:47:01 12° 87° (E) 08:48:38 145.826/435.025
CINEMA 3 31 Jan 08:46:35 08:49:36 17° 88° (E) 08:52:42 145.822/145.860
RS-15 31 Jan 08:53:42 09:02:41 27° 351° (N) 09:11:49 29.354- 29.394
UNISAT 6 31 Jan 08:59:09 09:02:40 22° 65° (ENE) 09:06:17 437.425
SEEDS 31 Jan 09:01:35 09:05:39 47° 99° (E) 09:09:41 437.485
GOMX 1 31 Jan 09:13:52 09:19:19 76° 101° (E) 09:24:29 467.674
DOVE 4 31 Jan 09:15:24 09:20:32 57° 99° (E) 09:25:23 437.250
UKube-1 31 Jan 09:21:21 09:23:56 16° 90° (E) 09:26:40 .
COMPASS 1 31 Jan 09:24:44 09:28:55 71° 102° (ESE) 09:33:03 437.405
NANOSAT C BR1 31 Jan 09:24:46 09:27:59 21° 66° (ENE) 09:31:18 145.865
SO-50 31 Jan 09:27:13 09:31:09 30° 115° (ESE) 09:35:16 436.795
BRITE-PL 31 Jan 09:30:15 09:35:52 60° 288° (WNW) 09:41:11 437.365/2234.400
PHONESAT 2.4 31 Jan 09:31:11 09:34:29 35° 168° (SSE) 09:37:50 2401.200-2431.200
DELFI C3 31 Jan 09:31:38 09:35:08 28° 95° (E) 09:38:41 145.870
ANTELSAT 31 Jan 09:34:11 09:38:41 46° 71° (ENE) 09:43:10 437.575/2403.000
QB50P2 31 Jan 09:39:51 09:43:35 30° 69° (ENE) 09:47:25 145.880/145.840
ZACube-1 31 Jan 09:40:09 09:43:37 23° 92° (E) 09:47:04 437.345
TIGRISAT 31 Jan 09:40:27 09:45:00 51° 72° (ENE) 09:49:34 435.000
CUBEBUG 2 31 Jan 09:42:23 09:46:32 34° 95° (E) 09:50:34 437.445
DX 1 31 Jan 09:44:04 09:47:52 28° 95° (E) 09:51:41 434.975-435.025
CANX-2 31 Jan 09:46:13 09:50:16 43° 288° (WNW) 09:54:14 2200.000
BUGSAT 1 31 Jan 09:48:04 09:51:33 28° 68° (ENE) 09:55:09 437.445
QB50P1 31 Jan 09:48:08 09:52:03 36° 70° (ENE) 09:56:02 145.935-145.965
AAUSAT CUBESAT 2 31 Jan 09:49:17 09:53:26 70° 285° (WNW) 09:57:34 437.432
FUNcube-1 31 Jan 09:51:04 09:54:53 29° 94° (E) 09:58:40 145.935
VERMONT LUNAR 31 Jan 09:56:23 09:59:43 43° 177° (S) 10:03:03 437.305
BEESAT 2 31 Jan 10:02:18 10:06:17 41° 48° (NE) 10:10:15 435.950
POLYITAN 1 31 Jan 10:04:12 10:08:24 54° 73° (ENE) 10:12:40 437.675
CUTE 1.7 + AOD 2 31 Jan 10:10:22 10:13:59 27° 291° (WNW) 10:17:32 437.475
AIST 2 31 Jan 10:10:30 10:14:07 25° 42° (NE) 10:17:42 435.215
BEESAT 3 31 Jan 10:13:57 10:18:05 59° 52° (NE) 10:22:09 437.485
HO-68 31 Jan 10:14:14 10:21:06 51° 294° (WNW) 10:27:56 435.675
50 SAT 31 Jan 10:15:22 10:18:25 21° 92° (E) 10:21:31 437.505
UWE-3 31 Jan 10:17:15 10:21:45 67° 101° (E) 10:26:05 435.000/436.395/437.385
Oscar 11 31 Jan 10:19:29 10:23:47 69° 286° (WNW) 10:28:04 145.826/435.025
AISAT 31 Jan 10:19:43 10:23:33 27° 94° (E) 10:27:24 437.250
AIST 1 31 Jan 10:21:27 10:24:26 19° 88° (E) 10:27:33
CINEMA 3 31 Jan 10:22:32 10:27:18 56° 287° (WNW) 10:31:49 145.822/145.860
POPSAT HIP 1 31 Jan 10:22:51 10:27:08 85° 77° (ENE) 10:31:29 437.405
GONETS M04 31 Jan 10:23:56 10:29:03 17° 55° (NE) 10:34:34
DUCHIFAT 1 31 Jan 10:24:05 10:28:22 87° 76° (ENE) 10:32:42 145.980
ESTCUBE 1 31 Jan 10:30:48 10:33:33 16° 90° (E) 10:36:29 437.505/2401.250
UNISAT 6 31 Jan 10:34:40 10:39:13 46° 262° (W) 10:43:43 437.425
SEEDS 31 Jan 10:38:21 10:41:10 17° 295° (WNW) 10:43:52 437.485
VELOX 1 31 Jan 10:46:21 10:50:44 49° 99° (E) 10:55:05 145.980
CUBEBUG 1 31 Jan 10:48:03 10:51:30 22° 92° (E) 10:55:03 437.445
GOMX 1 31 Jan 10:53:17 10:56:49 17° 300° (WNW) 11:00:05 467.674
DOVE 4 31 Jan 10:54:01 10:57:51 21° 297° (WNW) 11:01:27 437.250
UKube-1 31 Jan 10:56:13 11:00:29 53° 288° (WNW) 11:04:43 .
NANOSAT C BR1 31 Jan 10:59:38 11:03:39 38° 263° (W) 11:07:42 145.865
HUMSAT D 31 Jan 11:00:03 11:04:20 89° 96° (E) 11:08:30 437.325/437.525
COMPASS 1 31 Jan 11:02:25 11:04:09 12° 298° (WNW) 11:05:41 437.405
DELFI C3 31 Jan 11:06:58 11:10:20 25° 292° (WNW) 11:13:36 145.870
SO-50 31 Jan 11:07:16 11:11:36 39° 314° (NW) 11:16:05 436.795
PHONESAT 2.4 31 Jan 11:09:16 11:12:45 44° 184° (S) 11:16:14 2401.200-2431.200
RS-15 31 Jan 11:09:40 11:19:27 34° 25° (NNE) 11:29:43 29.354- 29.394
ANTELSAT 31 Jan 11:12:08 11:15:44 21° 269° (W) 11:19:12 437.575/2403.000
BRITE-PL 31 Jan 11:12:18 11:13:17 10° 305° (NW) 11:13:57 437.365/2234.400
QB50P2 31 Jan 11:15:53 11:19:32 26° 266° (W) 11:23:10 145.880/145.840
ZACube-1 31 Jan 11:16:04 11:20:08 36° 291° (WNW) 11:24:05 437.345
TIGRISAT 31 Jan 11:18:45 11:22:06 18° 270° (W) 11:25:18 435.000
CUBEBUG 2 31 Jan 11:19:19 11:23:08 26° 293° (WNW) 11:26:45 437.445
DX 1 31 Jan 11:20:15 11:24:07 30° 292° (WNW) 11:27:55 434.975-435.025
BUGSAT 1 31 Jan 11:23:29 11:27:02 27° 266° (W) 11:30:36 437.445
QB50P1 31 Jan 11:24:43 11:28:06 22° 267° (W) 11:31:25 145.935-145.965
FUNcube-1 31 Jan 11:27:24 11:31:13 28° 292° (WNW) 11:34:54 145.935
PCSat 31 Jan 11:32:46 11:36:55 22° 40° (NE) 11:41:09 145.827
VERMONT LUNAR 31 Jan 11:34:20 11:37:30 32° 194° (SSW) 11:40:39 437.305
Oscar 19 31 Jan 11:37:23 11:40:59 20° 62° (ENE) 11:44:45 437.125/150
BEESAT 2 31 Jan 11:41:00 11:44:18 22° 246° (WSW) 11:47:29 435.950
POLYITAN 1 31 Jan 11:42:12 11:44:46 15° 271° (W) 11:47:10 437.675
AIST 2 31 Jan 11:48:50 11:52:55 43° 242° (WSW) 11:56:54 435.215
50 SAT 31 Jan 11:49:58 11:53:39 33° 290° (WNW) 11:57:15 437.505
BEESAT 3 31 Jan 11:53:19 11:55:49 15° 249° (WSW) 11:58:08 437.485
UWE-3 31 Jan 11:55:19 11:57:47 14° 298° (WNW) 12:00:02 435.000/436.395/437.385
AISAT 31 Jan 11:56:10 12:00:13 32° 292° (WNW) 12:04:12 437.250
AIST 1 31 Jan 11:57:55 12:01:53 37° 285° (WNW) 12:05:52
SPROUT 31 Jan 11:59:34 12:03:27 31° 95° (E) 12:07:21 437.525
ITAMSAT 1 31 Jan 12:00:49 12:02:45 12° 57° (ENE) 12:04:55 435.822/435.867
HO-68 31 Jan 12:05:06 12:07:22 11° 314° (NW) 12:09:15 435.675
ESTCUBE 1 31 Jan 12:06:24 12:10:51 54° 287° (WNW) 12:15:16 437.505/2401.250
GONETS M04 31 Jan 12:19:03 12:27:47 76° 79° (E) 12:36:29
VELOX 1 31 Jan 12:23:46 12:27:00 19° 296° (WNW) 12:30:07 145.980
CUBEBUG 1 31 Jan 12:23:54 12:28:03 38° 290° (WNW) 12:32:09 437.445
SWISSCUBE 31 Jan 12:26:40 12:27:12 10° 85° (E) 12:28:04 437.505
TISAT 1 31 Jan 12:28:02 12:32:18 61° 101° (E) 12:36:33 437.305
AO-7 31 Jan 12:30:27 12:31:19 10° 36° (NE) 12:32:37 29.400- 29.500
HUMSAT D 31 Jan 12:39:08 12:39:30 10° 300° (WNW) 12:39:39 437.325/437.525
BEESAT 31 Jan 12:40:26 12:42:44 14° 88° (E) 12:45:17 436.000
ITUPSAT 1 31 Jan 12:45:34 12:48:17 15° 89° (E) 12:51:11 437.325
PHONESAT 2.4 31 Jan 12:47:56 12:50:55 24° 201° (SSW) 12:53:53 2401.200-2431.200
SO-50 31 Jan 12:52:21 12:53:34 11° 337° (NNW) 12:54:41 436.795
Gurwin Techsat 1B 31 Jan 13:09:06 13:13:45 33° 67° (ENE) 13:18:29 435.225
VERMONT LUNAR 31 Jan 13:13:43 13:15:01 12° 209° (SSW) 13:16:13 437.305
HORYU 2 31 Jan 13:14:30 13:15:14 10° 59° (ENE) 13:16:12 437.375
Oscar 19 31 Jan 13:14:48 13:19:57 61° 259° (W) 13:25:06 437.125/150
PCSat 31 Jan 13:15:32 13:20:59 76° 241° (WSW) 13:26:23 145.827
RS-15 31 Jan 13:22:32 13:33:55 80° 53° (NE) 13:45:49 29.354- 29.394
SPROUT 31 Jan 13:35:48 13:39:28 26° 292° (WNW) 13:43:04 437.525
ITAMSAT 1 31 Jan 13:36:20 13:41:30 80° 75° (ENE) 13:46:44 435.822/435.867
KKS-1 31 Jan 13:57:24 14:00:10 16° 90° (E) 14:03:06 437.445
SWISSCUBE 31 Jan 14:01:04 14:05:54 90° 251° (WSW) 14:10:41 437.505
TISAT 1 31 Jan 14:05:14 14:07:41 15° 297° (WNW) 14:10:00 437.305
AO-7 31 Jan 14:14:27 14:21:55 39° 59° (ENE) 14:29:30 29.400- 29.500
BEESAT 31 Jan 14:16:25 14:21:11 70° 287° (WNW) 14:25:57 436.000
GONETS M04 31 Jan 14:17:09 14:23:51 24° 279° (W) 14:30:12
ITUPSAT 1 31 Jan 14:21:57 14:26:42 63° 288° (WNW) 14:31:26 437.325
DANDE 31 Jan 14:26:35 14:32:40 37° 66° (ENE) 14:37:22 436.750
JAS-2 31 Jan 14:31:35 14:33:55 13° 59° (ENE) 14:36:26 435.910
CUSAT 1 31 Jan 14:42:12 14:48:16 55° 73° (ENE) 14:52:45 437.405
O/OREOS (USA 219) 31 Jan 14:42:19 14:43:58 12° 99° (E) 14:45:52 437.305
HORYU 2 31 Jan 14:46:45 14:51:15 84° 76° (ENE) 14:55:47 437.375
Gurwin Techsat 1B 31 Jan 14:48:51 14:53:42 35° 264° (W) 14:58:33 435.225
PCSat 31 Jan 15:02:31 15:03:36 10° 257° (WSW) 15:04:19 145.827
M-CUBED/EXP-1 PRIME 31 Jan 15:10:41 15:12:47 16° 99° (E) 15:15:02 437.505
ITAMSAT 1 31 Jan 15:19:06 15:21:45 13° 273° (W) 15:24:08 435.822/435.867
STARS 31 Jan 15:20:31 15:25:00 79° 102° (ESE) 15:29:25 437.465
KKS-1 31 Jan 15:32:49 15:37:13 53° 288° (WNW) 15:41:34 437.445
RS-15 31 Jan 15:35:51 15:45:28 32° 254° (WSW) 15:55:03 29.354- 29.394
AUBIESAT-1 31 Jan 15:40:56 15:44:00 33° 103° (ESE) 15:47:10 437.475
SWISSCUBE 31 Jan 15:41:06 15:43:08 12° 301° (WNW) 15:44:57 437.505
MOZHAYETS 4 31 Jan 15:55:30 15:57:24 13° 87° (E) 15:59:32
Cubesat XI-IV 31 Jan 16:02:49 16:05:17 14° 57° (ENE) 16:08:00 437.490
AO-7 31 Jan 16:06:20 16:14:31 55° 259° (WSW) 16:22:42 29.400- 29.500
DANDE 31 Jan 16:10:22 16:16:01 32° 274° (W) 16:20:18 436.750
JAS-2 31 Jan 16:13:03 16:18:28 87° 251° (WSW) 16:23:42 435.910
SO-50 31 Jan 16:17:23 16:19:24 12° 26° (NNE) 16:21:33 436.795
O/OREOS (USA 219) 31 Jan 16:18:21 16:22:50 72° 295° (WNW) 16:27:23 437.305
CUTE-I 31 Jan 16:20:43 16:24:17 19° 61° (ENE) 16:28:02 437.470
CUSAT 1 31 Jan 16:26:31 16:30:25 18° 279° (W) 16:33:32 437.405
HORYU 2 31 Jan 16:28:02 16:28:39 10° 274° (W) 16:28:59 437.375
M-CUBED/EXP-1 PRIME 31 Jan 16:44:57 16:47:56 30° 294° (WNW) 16:50:58 437.505
STARS 31 Jan 16:58:56 17:00:55 13° 299° (WNW) 17:02:44 437.465
AUBIESAT-1 31 Jan 17:16:39 17:18:47 16° 299° (WNW) 17:20:52 437.475
YUBILEINY 31 Jan 17:29:40 17:31:58 12° 73° (ENE) 17:34:58 435.215
MOZHAYETS 4 31 Jan 17:30:40 17:35:14 70° 286° (WNW) 17:39:46
Cubesat XI-IV 31 Jan 17:39:21 17:44:40 86° 77° (ENE) 17:50:04 437.490
CUBESAT XI-V 31 Jan 17:54:35 17:57:41 18° 90° (E) 18:00:58 437.345
SO-50 31 Jan 17:56:27 18:01:12 47° 48° (NE) 18:05:59 436.795
CUTE-I 31 Jan 17:58:36 18:03:54 67° 258° (WSW) 18:09:15 437.470
O/OREOS (USA 219) 31 Jan 18:02:04 18:03:14 11° 317° (NW) 18:04:12 437.305
JAS-2 31 Jan 18:04:06 18:04:33 10° 275° (W) 18:04:38 435.910
PRISM 31 Jan 18:24:54 18:28:54 44° 99° (E) 18:32:54 437.425
GOMX 1 31 Jan 18:47:58 18:50:44 15° 59° (ENE) 18:53:46 467.674
DOVE 4 31 Jan 18:49:04 18:50:10 11° 57° (ENE) 18:51:34 437.250
HO-68 31 Jan 18:57:30 19:03:33 32° 60° (ENE) 19:09:44 435.675
BRITE-PL 31 Jan 19:04:46 19:09:06 27° 65° (ENE) 19:13:46 437.365/2234.400
STRAND 1 31 Jan 19:05:52 19:10:58 59° 101° (E) 19:16:04 437.568
CANX-2 31 Jan 19:06:25 19:09:11 17° 65° (ENE) 19:12:03 2200.000
AAUSAT CUBESAT 2 31 Jan 19:10:02 19:10:52 11° 61° (ENE) 19:11:54 437.432
YUBILEINY 31 Jan 19:18:41 19:27:11 63° 92° (E) 19:35:47 435.215
Cubesat XI-IV 31 Jan 19:23:05 19:25:37 13° 274° (W) 19:27:50 437.490
CUTE 1.7 + AOD 2 31 Jan 19:29:15 19:32:48 26° 68° (ENE) 19:36:24 437.475
CUBESAT XI-V 31 Jan 19:30:56 19:35:31 52° 287° (WNW) 19:40:05 437.345
SO-50 31 Jan 19:37:26 19:41:35 27° 246° (WSW) 19:45:38 436.795
Oscar 11 31 Jan 19:42:28 19:44:19 13° 62° (ENE) 19:46:20 145.826/435.025
CINEMA 3 31 Jan 19:49:37 19:53:18 22° 64° (ENE) 19:57:09 145.822/145.860
SEEDS 31 Jan 19:55:25 19:59:25 41° 72° (ENE) 20:03:27 437.485
PRISM 31 Jan 20:01:14 20:04:09 18° 295° (WNW) 20:06:57 437.425
COMPASS 1 31 Jan 20:17:42 20:21:51 60° 74° (ENE) 20:26:01 437.405
UKube-1 31 Jan 20:18:16 20:21:09 18° 64° (ENE) 20:24:10 .
DELFI C3 31 Jan 20:21:52 20:25:06 24° 68° (ENE) 20:28:25 145.870
DOVE 4 31 Jan 20:21:55 20:27:00 68° 74° (ENE) 20:32:19 437.250
GOMX 1 31 Jan 20:22:55 20:28:05 89° 233° (SW) 20:33:36 467.674
ISS 31 Jan 20:29:12 20:31:40 20° 136° (SE) 20:34:12 145.825
ZACube-1 31 Jan 20:37:46 20:41:28 25° 67° (ENE) 20:45:14 437.345
CANX-2 31 Jan 20:40:37 20:44:48 49° 261° (W) 20:48:59 2200.000
DX 1 31 Jan 20:41:25 20:45:14 31° 68° (ENE) 20:49:07 434.975-435.025
AAUSAT CUBESAT 2 31 Jan 20:41:45 20:45:58 84° 257° (WSW) 20:50:11 437.432
CUBEBUG 2 31 Jan 20:41:55 20:46:17 38° 70° (ENE) 20:50:44 437.445
BRITE-PL 31 Jan 20:42:24 20:47:22 45° 264° (W) 20:52:40 437.365/2234.400
HO-68 31 Jan 20:43:58 20:50:59 57° 259° (WSW) 20:58:01 435.675
STRAND 1 31 Jan 20:46:01 20:49:47 20° 298° (WNW) 20:53:25 437.568
FUNcube-1 31 Jan 20:48:23 20:52:24 30° 68° (ENE) 20:56:26 145.935
CUTE 1.7 + AOD 2 31 Jan 21:04:51 21:08:40 30° 265° (W) 21:12:27 437.475
50 SAT 31 Jan 21:04:53 21:07:40 18° 66° (ENE) 21:10:35 437.505
UWE-3 31 Jan 21:15:33 21:20:13 68° 75° (ENE) 21:24:55 435.000/436.395/437.385
Oscar 11 31 Jan 21:15:39 21:19:59 73° 257° (WSW) 21:24:21 145.826/435.025
YUBILEINY 31 Jan 21:17:09 21:24:44 31° 295° (WNW) 21:32:09 435.215
AISAT 31 Jan 21:19:30 21:23:23 30° 68° (ENE) 21:27:21 437.250
CINEMA 3 31 Jan 21:25:17 21:30:09 53° 261° (W) 21:35:07 145.822/145.860
SEEDS 31 Jan 21:32:24 21:35:29 19° 269° (W) 21:38:27 437.485
ESTCUBE 1 31 Jan 21:32:25 21:35:32 19° 64° (ENE) 21:38:47 437.505/2401.250
VELOX 1 31 Jan 21:45:42 21:50:01 54° 73° (ENE) 21:54:24 145.980
CUBEBUG 1 31 Jan 21:46:14 21:49:40 23° 66° (ENE) 21:53:12 437.445
UKube-1 31 Jan 21:52:48 21:57:00 49° 260° (W) 22:01:15 .
HUMSAT D 31 Jan 21:53:23 21:57:44 79° 76° (ENE) 22:02:06 437.325/437.525
COMPASS 1 31 Jan 21:56:02 21:58:03 13° 272° (W) 21:59:52 437.405
DELFI C3 31 Jan 21:56:36 22:00:15 30° 265° (W) 22:03:52 145.870
DOVE 4 31 Jan 22:02:00 22:05:23 17° 273° (W) 22:08:37 437.250
AIST 1 31 Jan 22:02:55 22:07:15 61° 79° (E) 22:11:35
ISS 31 Jan 22:04:40 22:07:55 61° 333° (NNW) 22:11:11 145.825
GOMX 1 31 Jan 22:04:54 22:07:10 12° 277° (W) 22:09:09 467.674
POPSAT HIP 1 31 Jan 22:08:37 22:10:26 13° 88° (E) 22:12:28 437.405
DUCHIFAT 1 31 Jan 22:09:28 22:11:19 13° 88° (E) 22:13:23 145.980
ZACube-1 31 Jan 22:13:22 22:17:41 38° 264° (W) 22:21:59 437.345
DX 1 31 Jan 22:17:48 22:21:31 27° 265° (W) 22:25:13 434.975-435.025
CUBEBUG 2 31 Jan 22:19:04 22:23:07 26° 267° (W) 22:27:05 437.445
FUNcube-1 31 Jan 22:24:38 22:28:43 30° 265° (W) 22:32:46 145.935
UNISAT 6 31 Jan 22:25:31 22:29:30 32° 95° (E) 22:33:25 437.425
50 SAT 31 Jan 22:38:34 22:42:31 43° 262° (W) 22:46:29 437.505
NANOSAT C BR1 31 Jan 22:43:17 22:47:04 29° 95° (E) 22:50:51 145.865
UWE-3 31 Jan 22:54:44 22:57:19 14° 273° (W) 22:59:40 435.000/436.395/437.385
SPROUT 31 Jan 22:55:33 22:59:19 31° 69° (ENE) 23:03:10 437.525
AISAT 31 Jan 22:56:09 23:00:01 28° 265° (W) 23:03:53 437.250
QB50P2 31 Jan 22:59:07 23:03:15 44° 98° (E) 23:07:22 145.880/145.840
ANTELSAT 31 Jan 23:01:28 23:05:56 79° 102° (ESE) 23:10:16 437.575/2403.000
BUGSAT 1 31 Jan 23:03:41 23:07:41 38° 97° (E) 23:11:42 437.445
QB50P1 31 Jan 23:07:19 23:11:34 54° 100° (E) 23:15:46 145.935-145.965
TIGRISAT 31 Jan 23:07:26 23:11:55 88° 102° (ESE) 23:16:15 435.000
ESTCUBE 1 31 Jan 23:07:48 23:12:08 48° 261° (W) 23:16:30 437.505/2401.250
CUBEBUG 1 31 Jan 23:21:52 23:25:54 36° 263° (W) 23:29:57 437.445
TISAT 1 31 Jan 23:21:59 23:26:09 56° 73° (ENE) 23:30:21 437.305
POLYITAN 1 31 Jan 23:24:05 23:28:27 83° 103° (ESE) 23:32:44 437.675
VELOX 1 31 Jan 23:24:13 23:27:01 16° 270° (W) 23:29:40 145.980
GONETS M04 31 Jan 23:29:53 23:34:39 17° 77° (ENE) 23:39:57
HUMSAT D 31 Jan 23:33:16 23:34:11 10° 274° (W) 23:34:49 437.325/437.525
SWISSCUBE 31 Jan 23:33:53 23:36:43 16° 62° (ENE) 23:39:43 437.505
ISS 31 Jan 23:42:06 23:44:51 24° 353° (N) 23:47:37 145.825
AIST 1 31 Jan 23:42:26 23:44:27 13° 275° (W) 23:46:16
POPSAT HIP 1 31 Jan 23:42:33 23:46:51 63° 286° (WNW) 23:51:05 437.405
DUCHIFAT 1 31 Jan 23:43:25 23:47:42 63° 286° (WNW) 23:51:56 145.980
BEESAT 31 Jan 23:48:25 23:51:49 20° 64° (ENE) 23:55:22 436.000
ITUPSAT 1 31 Jan 23:53:59 23:57:35 23° 65° (ENE) 00:01:19 437.325
UNISAT 6 01 Feb 00:02:30 00:06:12 26° 293° (WNW) 00:09:47 437.425
NANOSAT C BR1 01 Feb 00:19:13 00:22:54 27° 292° (WNW) 00:26:29 145.865
SPROUT 01 Feb 00:31:46 00:35:28 26° 266° (W) 00:39:07 437.525
QB50P2 01 Feb 00:35:47 00:38:54 19° 295° (WNW) 00:41:53 145.880/145.840
BUGSAT 1 01 Feb 00:39:40 00:43:00 22° 294° (WNW) 00:46:15 437.445
ANTELSAT 01 Feb 00:40:17 00:42:09 12° 300° (WNW) 00:43:49 437.575/2403.000
QB50P1 01 Feb 00:44:21 00:47:05 16° 296° (WNW) 00:49:41 145.935-145.965
TIGRISAT 01 Feb 00:46:43 00:48:02 11° 301° (WNW) 00:49:07 435.000
STARS 01 Feb 00:46:56 00:47:39 10° 59° (ENE) 00:48:36 437.465
O/OREOS (USA 219) 01 Feb 00:47:38 00:51:48 33° 57° (ENE) 00:56:00 437.305
KKS-1 01 Feb 00:57:25 01:00:35 20° 64° (ENE) 01:03:54 437.445
TISAT 1 01 Feb 01:00:04 01:02:25 14° 271° (W) 01:04:35 437.305
POLYITAN 1 01 Feb 01:02:21 01:03:48 11° 300° (WNW) 01:05:03 437.675
SWISSCUBE 01 Feb 01:09:24 01:14:08 66° 259° (W) 01:18:54 437.505
ISS 01 Feb 01:19:08 01:22:01 27° 12° (NNE) 01:24:55 145.825
GONETS M04 01 Feb 01:21:32 01:30:18 82° 96° (E) 01:39:03
BEESAT 01 Feb 01:24:45 01:29:23 50° 261° (W) 01:34:02 436.000
Oscar 19 01 Feb 01:24:47 01:29:40 42° 98° (E) 01:34:31 437.125/150
Gurwin Techsat 1B 01 Feb 01:26:15 01:27:03 10° 84° (E) 01:28:13 435.225
ITUPSAT 1 01 Feb 01:30:41 01:35:15 45° 261° (W) 01:39:50 437.325
BEESAT 2 01 Feb 01:36:24 01:40:21 45° 119° (ESE) 01:44:22 435.950
BEESAT 3 01 Feb 01:47:11 01:51:15 67° 122° (ESE) 01:55:24 437.485
ITAMSAT 1 01 Feb 01:48:05 01:52:19 25° 93° (E) 01:56:38 435.822/435.867
AIST 2 01 Feb 01:48:48 01:52:21 27° 115° (ESE) 01:56:01 435.215
M-CUBED/EXP-1 PRIME 01 Feb 02:00:57 02:04:28 34° 67° (ENE) 02:07:48 437.505
DANDE 01 Feb 02:01:48 02:02:46 10° 75° (ENE) 02:04:28 436.750
CUSAT 1 01 Feb 02:10:54 02:15:00 15° 80° (E) 02:19:35 437.405
STARS 01 Feb 02:19:00 02:23:28 85° 76° (ENE) 02:27:58 437.465
O/OREOS (USA 219) 01 Feb 02:27:13 02:31:10 28° 255° (WSW) 02:35:03 437.305
AUBIESAT-1 01 Feb 02:31:11 02:35:02 71° 69° (ENE) 02:38:36 437.475
KKS-1 01 Feb 02:32:37 02:36:58 47° 261° (W) 02:41:19 437.445
HORYU 2 01 Feb 02:38:11 02:40:30 14° 89° (E) 02:42:59 437.375
ISS 01 Feb 02:55:29 02:58:48 86° 213° (SSW) 03:02:06 145.825
MOZHAYETS 4 01 Feb 02:59:13 03:01:55 16° 63° (ENE) 03:04:46
Gurwin Techsat 1B 01 Feb 03:02:39 03:08:00 81° 102° (ESE) 03:13:21 435.225
Oscar 19 01 Feb 03:04:32 03:08:51 27° 295° (WNW) 03:13:04 437.125/150
BEESAT 2 01 Feb 03:15:22 03:18:47 24° 318° (NW) 03:22:11 435.950
GONETS M04 01 Feb 03:21:28 03:28:22 24° 300° (WNW) 03:34:57
JAS-2 01 Feb 03:22:47 03:23:08 10° 85° (E) 03:23:56 435.910
AIST 2 01 Feb 03:26:52 03:30:52 37° 313° (NW) 03:34:53 435.215
BEESAT 3 01 Feb 03:26:54 03:29:51 18° 322° (NW) 03:32:46 437.485
ITAMSAT 1 01 Feb 03:27:04 03:32:03 45° 291° (WNW) 03:37:00 435.822/435.867
DANDE 01 Feb 03:36:40 03:44:43 51° 92° (E) 03:52:54 436.750
M-CUBED/EXP-1 PRIME 01 Feb 03:36:47 03:39:35 18° 260° (W) 03:42:09 437.505
CUSAT 1 01 Feb 03:48:40 03:56:57 68° 96° (E) 04:05:06 437.405
RS-15 01 Feb 03:48:53 03:58:39 42° 110° (ESE) 04:08:41 29.354- 29.394
PCSat 01 Feb 03:58:31 04:03:55 73° 118° (ESE) 04:09:21 145.827
AO-7 01 Feb 04:05:48 04:13:47 48° 100° (E) 04:21:45 29.400- 29.500
HORYU 2 01 Feb 04:13:15 04:17:39 59° 287° (WNW) 04:22:00 437.375
ISS 01 Feb 04:33:22 04:34:52 12° 227° (SW) 04:36:15 145.825
MOZHAYETS 4 01 Feb 04:34:11 04:38:44 62° 259° (W) 04:43:18
Gurwin Techsat 1B 01 Feb 04:44:11 04:47:24 16° 301° (WNW) 04:50:25 435.225
STRAND 1 01 Feb 04:47:15 04:49:57 15° 59° (ENE) 04:52:50 437.568
CUBESAT XI-V 01 Feb 04:59:54 05:03:19 22° 65° (ENE) 05:06:53 437.345
JAS-2 01 Feb 05:03:26 05:09:12 72° 102° (ESE) 05:15:43 435.910
PRISM 01 Feb 05:17:09 05:21:00 41° 71° (ENE) 05:24:54 437.425
DANDE 01 Feb 05:20:19 05:28:24 44° 291° (WNW) 05:36:21 436.750
YUBILEINY 01 Feb 05:26:52 05:34:37 34° 67° (ENE) 05:42:31 435.215
CUSAT 1 01 Feb 05:33:09 05:40:36 32° 295° (WNW) 05:47:38 437.405
PCSat 01 Feb 05:43:39 05:47:56 23° 319° (NW) 05:52:09 145.827
Cubesat XI-IV 01 Feb 05:55:21 06:00:02 30° 94° (E) 06:04:46 437.490
